Location: Julian California
(33.0790°N, 116.6010°W)
Time: 16:52:35
(UTC-07:00)

Cosmos 1697 Rocket - Pass Details

Date: 27 March 2019
Orbit: 834 x 842 km, 71.0° (Epoch: 25 April)

Event Time Altitude Azimuth Distance (km) Brightness Sun altitude
Rises 20:28:12 0° 257° (WSW) 3,386 6.9 -18.4°
Reaches altitude 10° 20:33:13 10° 296° (WNW) 2,455 6.3 -19.4°
Maximum altitude 20:34:17 11° 307° (NW) 2,419 6.1 -19.6°
Drops below altitude 10° 20:35:21 10° 318° (NW) 2,456 6.0 -19.8°
Sets 20:40:24 0° 357° (N) 3,393 6.1 -20.8°
